[Iaude] MPEC Q224: 2020 QP6 [a=1.20,e=0.23,i=17.5,H=20.6]

mpec at marsden.cfa.harvard.edu mpec at marsden.cfa.harvard.edu
Fri Aug 28 20:34:51 EDT 2020


M.P.E.C. 2020-Q224                              Issued 2020 August 29, 00:33 UT

     The Minor Planet Electronic Circulars contain information on unusual
         minor planets and routine data on comets.  They are published
    on behalf of Division F of the International Astronomical Union by the
          Minor Planet Center, Smithsonian Astrophysical Observatory,
                          Cambridge, MA 02138, U.S.A.

             Prepared using the Tamkin Foundation Computer Network

                              MPC at CFA.HARVARD.EDU
            URL https://www.minorplanetcenter.net/    ISSN 1523-6714

                                    2020 QP6                                    


Observations:
     K20Q06P* C2020 08 26.22360 21 12 16.29 +29 51 15.3          20.8 GVEQ224G96
     K20Q06P  C2020 08 26.22834 21 12 15.74 +29 51 08.4          20.6 GVEQ224G96
     K20Q06P  C2020 08 26.23308 21 12 15.17 +29 51 02.7          21.1 GVEQ224G96
     K20Q06P  C2020 08 26.35780 21 12 00.60 +29 48 23.0          20.8 GVEQ224I52
     K20Q06P  C2020 08 26.35991 21 12 00.37 +29 48 19.9          21.4 GVEQ224I52
     K20Q06P  C2020 08 26.36201 21 12 00.15 +29 48 17.2          20.4 GVEQ224I52
     K20Q06P  C2020 08 26.36411 21 11 59.95 +29 48 15.9          20.6 GVEQ224I52
     K20Q06P KC2020 08 26.87240721 11 05.77 +29 37 13.1          21.1 GVEQ224K63
     K20Q06P KC2020 08 26.88857321 11 03.89 +29 36 52.8          21.1 GVEQ224K63
     K20Q06P KC2020 08 26.92742621 10 59.68 +29 36 02.1          19.8 GVEQ224I93
     K20Q06P KC2020 08 26.93416821 10 58.87 +29 35 52.8          20.7 GVEQ224I93
     K20Q06P KC2020 08 26.94235621 10 57.91 +29 35 42.2          20.4 GVEQ224I93
     K20Q06P  C2020 08 27.14817 21 10 36.40 +29 31 11.1          20.5 GVEQ224I52
     K20Q06P  C2020 08 27.14986 21 10 36.19 +29 31 08.7          20.1 GVEQ224I52
     K20Q06P  C2020 08 27.15154 21 10 35.98 +29 31 06.4          19.9 GVEQ224I52
     K20Q06P  C2020 08 27.15322 21 10 35.84 +29 31 05.1          20.6 GVEQ224I52
     K20Q06P  C2020 08 27.29852 21 10 19.17 +29 27 51.1          20.8 GVEQ224654
     K20Q06P  C2020 08 27.32034 21 10 16.68 +29 27 21.5          20.6 GVEQ224654
     K20Q06P  C2020 08 27.35928 21 10 12.17 +29 26 28.3          20.7 GVEQ224654
     K20Q06P IC2020 08 27.99538921 09 03.89 +29 11 51.8          20.6 GVEQ224L01
     K20Q06P IC2020 08 27.99888921 09 03.49 +29 11 47.1          20.5 GVEQ224L01
     K20Q06P IC2020 08 28.00238921 09 03.05 +29 11 41.3          20.4 GVEQ224L01
     K20Q06P  C2020 08 28.29682 21 08 32.13 +29 04 50.5          20.6 GVEQ224654
     K20Q06P  C2020 08 28.30083 21 08 31.56 +29 04 46.5          20.6 GVEQ224654

Observer details:
654 Table Mountain Observatory, Wrightwood-PHMC.  Observers P. Choi, N. Saini,
    C. Zhai, R. Trahan, M. Shao.
G96 Mt. Lemmon Survey.  Observer K. W. Wierzchos.  Measurers E. J.
    Christensen, G. A. Farneth, D. C. Fuls, A. R. Gibbs, A. D. Grauer, H.
    Groeller, R. A. Kowalski, S. M. Larson, G. J. Leonard, T. A. Pruyne, D.
    Rankin, R. L. Seaman, F. C. Shelly, K. W. Wierzchos.  1.5-m reflector +
    10K CCD.
I52 Steward Observatory, Mt. Lemmon Station.  Observers G. J. Leonard, D. C.
    Fuls.  Measurers E. J. Christensen, G. A. Farneth, D. C. Fuls, A. R.
    Gibbs, A. D. Grauer, H. Groeller, R. A. Kowalski, S. M. Larson, G. J.
    Leonard, T. A. Pruyne, D. Rankin, R. L. Seaman, F. C. Shelly, K. W.
    Wierzchos.  1.0-m reflector + CCD.
I93 St Pardon de Conques.  Observer F. Losse.  0.40-m f/3.7 reflector + CCD.
K63 G. Pascoli Observatory, Castelvecchio Pascoli.  Observer R. Bacci.  0.4-m
    f/3.2 Newtonian reflector + CCD.
L01 Visnjan Observatory, Tican.  Observer K. Korlevic.  1.0-m f/2.9 reflector
    + CCD.

Orbital elements:
2020 QP6                                                 Earth MOID = 0.1071 AU
Epoch 2020 May 31.0 TT = JDT 2459000.5                  Veres
M 178.13578              (2000.0)            P               Q
n   0.74751103     Peri.  268.82201     -0.31069496     -0.94479503
a   1.2024240      Node   200.24724     +0.94689401     -0.29811124
e   0.2339512      Incl.   17.50108     +0.08282733     -0.13598544
P   1.32           H   20.6           G   0.15           U   9
Residuals in seconds of arc
200826 G96  0.0   0.5+    200826 K63  0.3-  0.1-    200827 654  0.1-  0.1+
200826 G96  0.1+  0.4-    200826 I93  0.6+  0.4+    200827 654  0.4+  0.1+
200826 G96  0.1-  0.2-    200826 I93  0.1+  0.0     200827 654  0.0   0.1+
200826 I52  0.5-  0.0     200826 I93  0.1-  0.1+    200827 L01  0.0   0.5+
200826 I52  0.3-  0.4-    200827 I52  0.1+  0.2-    200827 L01  0.1-  0.8+
200826 I52  0.0   0.3-    200827 I52  0.2-  0.4-    200828 L01  0.7-  0.1-
200826 I52  0.6+  1.1+    200827 I52  0.4-  0.5-    200828 654  1.0+  1.2-
200826 K63  0.0   0.9-    200827 I52  0.3+  0.4+    200828 654  0.5-  0.5+

Ephemeris:
2020 QP6                 a,e,i = 1.20, 0.23, 18                  q = 0.9211
Date    TT    R. A. (2000) Decl.     Delta      r    Elong.  Phase     V
2020 07 30    21 56 03.3 +32 21 54   0.5781  1.4322   125.8    35.1    21.6
...
2020 08 14    21 34 31.5 +32 37 21   0.4996  1.4022   133.0    31.9    21.2
...
2020 08 22    21 20 02.4 +31 09 19   0.4656  1.3835   135.7    30.7    21.0
...
2020 08 28    21 09 04.0 +29 11 52   0.4445  1.3684   136.8    30.4    20.8
2020 08 29    21 07 17.7 +28 48 00   0.4414  1.3658   136.9    30.4    20.8
2020 08 30    21 05 32.9 +28 22 55   0.4384  1.3632   136.9    30.4    20.8
...
2020 09 05    20 55 47.6 +25 28 07   0.4229  1.3467   136.5    31.0    20.7
...
2020 09 13    20 45 30.7 +20 38 01   0.4092  1.3234   134.0    33.2    20.7
...
2020 09 28    20 37 45.6 +09 50 52   0.4042  1.2757   124.6    40.3    20.8

M. P. C. Staff               (C) Copyright 2020 MPC           M.P.E.C. 2020-Q224




More information about the Iaude mailing list